Location: *
(45.4590°N, 16.3650°E)
Time: 19:50:59
(UTC+00:00)

Ariane Rocket - Pass Details

Date: 17 January 2020
Orbit: 761 x 769 km, 98.7° (Epoch: 21 February)

Event Time Altitude Azimuth Distance (km) Brightness Sun altitude
Exits shadow 16:32:49 - 98° (E) 2,466 5.1 -9.3°
Reaches altitude 10° 16:33:31 10° 92° (E) 2,301 4.9 -9.4°
Maximum altitude 16:36:22 15° 57° (ENE) 1,959 4.5 -9.9°
Drops below altitude 10° 16:39:13 10° 23° (NNE) 2,312 5.1 -10.4°
Sets 16:42:26 0° 1° (N) 3,245 6.0 -10.9°
